Regional Weather Roundup
Issued by NWS

Home | Current Version | Previous Version | Graphics & Text | Print | Product List | Glossary On
Versions: 1 2 3 4 5 6 7 8 9 10 11 12 13 14 15 16 17 18 19 20 21 22 23 24 25 26 27 28 29 30 31 32 33 34 35 36 37 38 39 40 41 42 43 44 45 46 47 48 49 50
000
ASUS43 KFSD 200302
RWRSD

WEATHER ROUNDUP FOR SOUTH DAKOTA
NATIONAL WEATHER SERVICE SIOUX FALLS SD
900 PM CST MON FEB 19 2018

NOTE: "FAIR" INDICATES FEW OR NO CLOUDS BELOW 12,000 FEET WITH NO
SIGNIFICANT WEATHER AND/OR OBSTRUCTIONS TO VISIBILITY.


SDZ001>005-009-010-012>017-200400-
NORTHWEST AND NORTH CENTRAL SOUTH DAKOTA

CITY           SKY/WX    TMP DP  RH WIND       PRES   REMARKS
BUFFALO          N/A      1  -5  75 NE8       29.93F WCI -13
FAITH            N/A      1  -2  87 N15       30.00F WCI -18
MOBRIDGE       LGT SNOW   5  -1  76 N17       30.05S VSB 1   WCI -14
$$

SDZ012>016-024>037-041>051-057-063-072>074-200400-
SOUTHWEST AND SOUTH CENTRAL SOUTH DAKOTA

CITY           SKY/WX    TMP DP  RH WIND       PRES   REMARKS
RAPID CTY ARPT LGT SNOW  -1  -5  82 N17       29.95F FOG     WCI -22
PIERRE         SNOW       6   3  87 N16       30.02F VSB 1/2 WCI -12
CUSTER         LGT SNOW  -2  -9  72 CALM      29.68S
ELLSWORTH AFB  CLOUDY     0  -4  84 N13       29.94  BLWGSNOWWCI -18
PHILIP         LGT SNOW   4   0  83 N20       30.02F FOG     WCI -17
PINE RIDGE     LGT SNOW   0  -5  79 N10       29.89F WCI -16
SPEARFISH        N/A     -4  -9  77 NE5       29.90F HAZE    WCI -15
WINNER         LGT SNOW   9   4  80 N20       29.95F VSB 3/4 WCI -10
$$

SDZ004>011-016>023-039-040-200400-
NORTHEAST SOUTH DAKOTA

CITY           SKY/WX    TMP DP  RH WIND       PRES   REMARKS
ABERDEEN       LGT SNOW   5   0  79 N21G29    30.03F WCI -16
WATERTOWN      CLOUDY     6   3  87 N20       29.90F FOG     WCI -14
BROOKINGS      FLURRIES  10   6  84 NE15G21   29.89F WCI  -7
SISSETON         N/A      6   3  87 N20       30.03F WCI -14
$$

SDZ017-020-022-023-036>040-048>070-200400-
SOUTHEAST SOUTH DAKOTA

CITY           SKY/WX    TMP DP  RH WIND       PRES   REMARKS
SIOUX FALLS    FLURRIES  15  11  83 NE15      29.89F WCI   0
HURON          LGT SNOW   8   5  87 N14       29.98S FOG     WCI  -8
CHAMBERLAIN    CLOUDY     9   6  88 NW16      30.00R WCI  -8
MITCHELL       CLOUDY    12   7  80 N14       29.97R WCI  -3
YANKTON        FLURRIES  15  12  88 N13       29.89F WCI   1
$$

ABBREVIATIONS USED IN REMARKS
   TC - TEMPERATURE IN CELSIUS
  WCI - WIND CHILL INDEX
   HX - HEAT INDEX
  VSB - VISIBILITY




USA.gov is the U.S. government's official web portal to all federal, state and local government web resources and services.